Change the Weather History Date:

Monday, October 22, 2012

  Actual Average Record
Temperature  
Mean Temperature 53 °F 41 °F  
Max Temperature 64 °F 54 °F 76 °F (2003)
Min Temperature 42 °F 29 °F 8 °F (1984)
Degree Days  
Heating Degree Days 12 24  
Month to date heating degree days 407 439  
Since 1 July heating degree days 629 825  
Cooling Degree Days 0 0  
Month to date cooling degree days 0 0  
Year to date cooling degree days 419 186  
Growing Degree Days 2 (Base 50)    
Moisture  
Dew Point 34 °F    
Average Humidity 58    
Maximum Humidity 89    
Minimum Humidity 27    
Precipitation  
Precipitation 0.11 in 0.03 in 0.48 in (2010)
Month to date precipitation 0.16 0.57  
Year to date precipitation 4.03 8.09  
Sea Level Pressure  
Sea Level Pressure 29.64 in    
Wind  
Wind Speed 17 mph (SSW)    
Max Wind Speed 36 mph    
Max Gust Speed 47 mph    
Visibility 10 miles    
Events Rain    
T = Trace of Precipitation, MM = Missing Value Source: NWS Daily Summary

Daily Weather History Graph

Daily Weather History Graph

Search for Another Location

Airport or City:

Trip Planner

Search our weather history database for the weather conditions in past years. The results will help you decide how hot, cold, wet, or windy it might be!

Date:

Astronomy

Oct. 22, 2012 Rise Set
Actual Time 7:29 AM MDT 6:15 PM MDT
Civil Twilight 7:01 AM MDT 6:44 PM MDT
Nautical Twilight 6:28 AM MDT 7:16 PM MDT
Astronomical Twilight 5:56 AM MDT 7:48 PM MDT
Moon 2:31 PM MDT (10/22) 12:13 AM MDT (10/22)
Length of Visible Light 11h 42m
Length of Day
10h 46m
First Quarter, 57% of the Moon is Illuminated
Oct 22
First Quarter
Oct 29
Full
Nov 6
Last Quarter
Nov 13
New
Nov 20
First Quarter

Hourly Weather History & Observations

Time (MDT) Temp. Windchill Dew Point Humidity Pressure Visibility Wind Dir Wind Speed Gust Speed Precip Events Conditions
12:53 AM 46.0 °F - 30.9 °F 56% 29.73 in 10.0 mi Calm Calm - N/A   Overcast
1:53 AM 43.0 °F - 37.9 °F 82% 29.75 in 5.0 mi Calm Calm - 0.03 in Rain Rain
2:53 AM 43.0 °F 37.2 °F 39.9 °F 89% 29.71 in 10.0 mi ESE 10.4 mph - 0.07 in Rain Light Rain
3:53 AM 43.0 °F 37.7 °F 39.9 °F 89% 29.69 in 10.0 mi ENE 9.2 mph - 0.00 in   Overcast
4:53 AM 43.0 °F 38.8 °F 39.9 °F 89% 29.69 in 10.0 mi ESE 6.9 mph - N/A   Mostly Cloudy
5:53 AM 43.0 °F 38.8 °F 39.0 °F 86% 29.70 in 10.0 mi SSE 6.9 mph - 0.01 in   Overcast
7:53 AM 45.0 °F - 37.9 °F 76% 29.73 in 10.0 mi Calm Calm - N/A   Overcast
8:53 AM 46.9 °F - 39.9 °F 77% 29.73 in 10.0 mi SE 3.5 mph - N/A   Mostly Cloudy
9:53 AM 55.0 °F - 37.0 °F 51% 29.68 in 10.0 mi SSW 16.1 mph 25.3 mph N/A   Clear
10:53 AM 59.0 °F - 37.0 °F 44% 29.65 in 10.0 mi SSW 24.2 mph 35.7 mph N/A   Clear
11:53 AM 57.9 °F - 34.0 °F 41% 29.65 in 10.0 mi SW 25.3 mph 33.4 mph N/A   Partly Cloudy
12:53 PM 57.0 °F - 32.0 °F 39% 29.64 in 10.0 mi SSW 28.8 mph 35.7 mph N/A   Scattered Clouds
1:53 PM 60.1 °F - 30.9 °F 33% 29.58 in 10.0 mi SSW 27.6 mph 42.6 mph N/A   Scattered Clouds
2:53 PM 62.1 °F - 30.0 °F 30% 29.57 in 10.0 mi SW 27.6 mph 39.1 mph N/A   Partly Cloudy
3:53 PM 62.1 °F - 28.9 °F 29% 29.56 in 10.0 mi SSW 28.8 mph 44.9 mph N/A   Clear
4:53 PM 57.9 °F - 30.0 °F 35% 29.57 in 10.0 mi SSW 27.6 mph 36.8 mph N/A   Clear
5:53 PM 57.0 °F - 30.0 °F 36% 29.58 in 10.0 mi SSW 23.0 mph 35.7 mph N/A   Clear
6:53 PM 55.0 °F - 30.9 °F 40% 29.59 in 10.0 mi SSW 19.6 mph 26.5 mph N/A   Clear
7:53 PM 55.0 °F - 30.9 °F 40% 29.58 in 10.0 mi SW 26.5 mph 35.7 mph N/A   Clear
8:53 PM 53.1 °F - 30.9 °F 43% 29.57 in 10.0 mi SSW 15.0 mph 26.5 mph N/A   Clear
9:53 PM 54.0 °F - 30.0 °F 40% 29.53 in 10.0 mi SSW 23.0 mph 32.2 mph N/A   Mostly Cloudy
10:53 PM 54.0 °F - 30.9 °F 41% 29.52 in 10.0 mi SSW 25.3 mph 38.0 mph N/A   Mostly Cloudy